| time (UTC) | temp C | wind direction | speed KPH | gust KPH | rain 1hr cm | rain 24hr cm | rain mn cm | humidity % | barometer mb |
| 20260504212545 | 25 | 143 | 8.0 | 25.7 | 0.00 | 0.00 | 0.00 | 51 | 1004.2 |
| 20260504212045 | 25 | 298 | 11.3 | 33.8 | 0.00 | 0.00 | 0.00 | 51 | 1004.0 |
| 20260504211544 | 25 | 286 | 11.3 | 32.2 | 0.00 | 0.00 | 0.00 | 49 | 1004.1 |
| 20260504211043 | 25 | 208 | 11.3 | 32.2 | 0.00 | 0.00 | 0.00 | 50 | 1004.1 |
| 20260504210645 | 25 | 190 | 8.0 | 25.7 | 0.00 | 0.00 | 0.00 | 52 | 1004.2 |
| 20260504210059 | 25 | 235 | 9.7 | 25.7 | 0.00 | 0.00 | 0.00 | 51 | 1004.2 |
| 20260504205545 | 25 | 300 | 3.2 | 30.6 | 0.00 | 0.00 | 0.00 | 52 | 1004.2 |
| 20260504205044 | 25 | 310 | 11.3 | 30.6 | 0.00 | 0.00 | 0.00 | 51 | 1004.3 |
| 20260504204548 | 26 | 248 | 8.0 | 24.1 | 0.00 | 0.00 | 0.00 | 51 | 1004.6 |
| 20260504204044 | 26 | 115 | 6.4 | 20.9 | 0.00 | 0.00 | 0.00 | 52 | 1004.5 |
| 20260504203545 | 26 | 172 | 8.0 | 20.9 | 0.00 | 0.00 | 0.00 | 52 | 1004.8 |
| 20260504203045 | 25 | 319 | 8.0 | 19.3 | 0.00 | 0.00 | 0.00 | 52 | 1004.8 |
| 20260504202541 | 25 | 220 | 4.8 | 25.7 | 0.00 | 0.00 | 0.00 | 52 | 1005.1 |
| 20260504202040 | 26 | 233 | 12.9 | 25.7 | 0.00 | 0.00 | 0.00 | 48 | 1005.1 |
| 20260504201546 | 26 | 207 | 9.7 | 24.1 | 0.00 | 0.00 | 0.00 | 51 | 1005.3 |
| 20260504201038 | 26 | 173 | 6.4 | 33.8 | 0.00 | 0.00 | 0.00 | 51 | 1005.3 |
| 20260504200640 | 26 | 201 | 11.3 | 33.8 | 0.00 | 0.00 | 0.00 | 52 | 1005.5 |
| 20260504200050 | 25 | 192 | 8.0 | 22.5 | 0.00 | 0.00 | 0.00 | 55 | 1005.6 |
| 20260504195540 | 24 | 210 | 4.8 | 14.5 | 0.00 | 0.00 | 0.00 | 55 | 1005.7 |
| 20260504195040 | 24 | 211 | 8.0 | 22.5 | 0.00 | 0.00 | 0.00 | 53 | 1005.7 |
| 20260504194538 | 24 | 225 | 12.9 | 22.5 | 0.00 | 0.00 | 0.00 | 52 | 1005.8 |
| 20260504194037 | 25 | 147 | 4.8 | 19.3 | 0.00 | 0.00 | 0.00 | 53 | 1006.0 |
| 20260504193537 | 25 | 298 | 8.0 | 19.3 | 0.00 | 0.00 | 0.00 | 50 | 1006.1 |
| 20260504193041 | 25 | 167 | 4.8 | 19.3 | 0.00 | 0.00 | 0.00 | 55 | 1006.2 |
| 20260504192535 | 25 | 189 | 9.7 | 19.3 | 0.00 | 0.00 | 0.00 | 51 | 1006.2 |
| 20260504192037 | 25 | 205 | 6.4 | 19.3 | 0.00 | 0.00 | 0.00 | 52 | 1006.3 |
| 20260504191538 | 25 | 219 | 8.0 | 19.3 | 0.00 | 0.00 | 0.00 | 52 | 1006.3 |
| 20260504191036 | 26 | 115 | 6.4 | 33.8 | 0.00 | 0.00 | 0.00 | 50 | 1006.1 |
| 20260504190503 | 26 | 320 | 9.7 | 33.8 | 0.00 | 0.00 | 0.00 | 50 | 1006.1 |
| 20260504190101 | 26 | 262 | 11.3 | 32.2 | 0.00 | 0.00 | 0.00 | 51 | 1006.1 |
| 20260504190000 | 26 | 202 | 12.9 | 32.2 | 0.00 | 0.00 | 0.00 | 49 | 1006.2 |
| 20260504185559 | 26 | 331 | 9.7 | 30.6 | 0.00 | 0.00 | 0.00 | 49 | 1006.2 |
| 20260504185059 | 26 | 173 | 14.5 | 37.0 | 0.00 | 0.00 | 0.00 | 48 | 1006.3 |
| 20260504184600 | 26 | 196 | 8.0 | 35.4 | 0.00 | 0.00 | 0.00 | 50 | 1006.3 |
| 20260504184058 | 26 | 213 | 11.3 | 37.0 | 0.00 | 0.00 | 0.00 | 49 | 1006.2 |
| 20260504183558 | 26 | 250 | 6.4 | 37.0 | 0.00 | 0.00 | 0.00 | 52 | 1006.3 |
| 20260504183056 | 25 | 355 | 12.9 | 37.0 | 0.00 | 0.00 | 0.00 | 50 | 1006.3 |
| 20260504182559 | 26 | 163 | 9.7 | 22.5 | 0.00 | 0.00 | 0.00 | 52 | 1006.2 |
| 20260504182054 | 26 | 150 | 9.7 | 17.7 | 0.00 | 0.00 | 0.00 | 51 | 1006.3 |
| 20260504181556 | 25 | 199 | 6.4 | 22.5 | 0.00 | 0.00 | 0.00 | 50 | 1006.2 |
| 20260504181053 | 25 | 247 | 3.2 | 22.5 | 0.00 | 0.00 | 0.00 | 52 | 1006.3 |
| 20260504180654 | 25 | 294 | 6.4 | 22.5 | 0.00 | 0.00 | 0.00 | 52 | 1006.4 |
| 20260504180057 | 25 | 174 | 6.4 | 25.7 | 0.00 | 0.00 | 0.00 | 52 | 1006.4 |
| 20260504175657 | 25 | 197 | 8.0 | 25.7 | 0.00 | 0.00 | 0.00 | 51 | 1006.4 |
| 20260504175055 | 25 | 207 | 6.4 | 33.8 | 0.00 | 0.00 | 0.00 | 55 | 1006.4 |
| 20260504174557 | 25 | 190 | 14.5 | 33.8 | 0.00 | 0.00 | 0.00 | 52 | 1006.4 |
| 20260504174055 | 25 | 210 | 16.1 | 29.0 | 0.00 | 0.00 | 0.00 | 51 | 1006.4 |
| 20260504173553 | 25 | 168 | 6.4 | 30.6 | 0.00 | 0.00 | 0.00 | 53 | 1006.3 |
| 20260504173053 | 25 | 184 | 9.7 | 29.0 | 0.00 | 0.00 | 0.00 | 55 | 1006.3 |
| 20260504172552 | 25 | 147 | 6.4 | 22.5 | 0.00 | 0.00 | 0.00 | 52 | 1006.4 |
| 20260504172051 | 25 | 193 | 4.8 | 27.4 | 0.00 | 0.00 | 0.00 | 55 | 1006.6 |
| 20260504171550 | 24 | 237 | 6.4 | 33.8 | 0.00 | 0.00 | 0.00 | 55 | 1006.6 |
| 20260504171050 | 24 | 238 | 12.9 | 33.8 | 0.00 | 0.00 | 0.00 | 54 | 1006.7 |
| 20260504170648 | 24 | 240 | 9.7 | 29.0 | 0.00 | 0.00 | 0.00 | 53 | 1006.7 |
| 20260504151041 | 21 | 171 | 11.3 | 25.7 | 0.00 | 0.00 | 0.00 | 57 | 1007.6 |
| 20260504150640 | 21 | 181 | 3.2 | 25.7 | 0.00 | 0.00 | 0.00 | 60 | 1007.7 |
| 20260504141040 | 20 | 240 | 8.0 | 20.9 | 0.00 | 0.00 | 0.00 | 61 | 1008.4 |
| 20260504140509 | 19 | 192 | 6.4 | 22.5 | 0.00 | 0.00 | 0.00 | 63 | 1008.5 |
| 20260504130504 | 17 | 230 | 4.8 | 25.7 | 0.00 | 0.00 | 0.00 | 68 | 1008.8 |
| 20260504110651 | 16 | 257 | 4.8 | 11.3 | 0.00 | 0.00 | 0.00 | 69 | 1009.0 |
| 20260504081541 | 16 | 220 | 4.8 | 14.5 | 0.00 | 0.00 | 0.00 | 69 | 1009.5 |
| 20260504081038 | 16 | 173 | 3.2 | 12.9 | 0.00 | 0.00 | 0.00 | 68 | 1009.6 |
| 20260504080638 | 16 | 270 | 1.6 | 12.9 | 0.00 | 0.00 | 0.00 | 69 | 1009.4 |
| 20260504050649 | 17 | 168 | 4.8 | 12.9 | 0.00 | 0.00 | 0.00 | 67 | 1011.2 |
| 20260504045548 | 17 | 190 | 4.8 | 29.0 | 0.00 | 0.00 | 0.00 | 66 | 1011.3 |
| 20260504045044 | 17 | 153 | 4.8 | 16.1 | 0.00 | 0.00 | 0.00 | 66 | 1011.4 |
| 20260504044547 | 17 | 254 | 6.4 | 16.1 | 0.00 | 0.00 | 0.00 | 66 | 1011.3 |
| 20260504044044 | 17 | 200 | 6.4 | 19.3 | 0.00 | 0.00 | 0.00 | 66 | 1011.4 |
| 20260504043544 | 17 | 189 | 3.2 | 19.3 | 0.00 | 0.00 | 0.00 | 66 | 1011.5 |
| 20260504043107 | 17 | 176 | 4.8 | 14.5 | 0.00 | 0.00 | 0.00 | 66 | 1011.5 |
| 20260504042543 | 17 | 235 | 4.8 | 14.5 | 0.00 | 0.00 | 0.00 | 66 | 1011.4 |
| 20260504042046 | 17 | 200 | 6.4 | 14.5 | 0.00 | 0.00 | 0.00 | 66 | 1011.6 |
| 20260504041543 | 17 | 211 | 3.2 | 9.7 | 0.00 | 0.00 | 0.00 | 67 | 1011.7 |
| 20260504041043 | 17 | 205 | 3.2 | 11.3 | 0.00 | 0.00 | 0.00 | 67 | 1011.7 |
| 20260504040644 | 17 | 193 | 3.2 | 11.3 | 0.00 | 0.00 | 0.00 | 67 | 1011.7 |
| 20260504040043 | 17 | 194 | 4.8 | 12.9 | 0.00 | 0.00 | 0.00 | 67 | 1011.7 |
| 20260504035544 | 17 | 192 | 4.8 | 16.1 | 0.00 | 0.00 | 0.00 | 67 | 1011.8 |
| 20260504035043 | 17 | 169 | 4.8 | 16.1 | 0.00 | 0.00 | 0.00 | 66 | 1011.9 |
| 20260504034547 | 17 | 216 | 1.6 | 9.7 | 0.00 | 0.00 | 0.00 | 66 | 1012.0 |
| 20260504034043 | 17 | 196 | 3.2 | 9.7 | 0.00 | 0.00 | 0.00 | 66 | 1012.1 |
| 20260504033542 | 17 | 198 | 3.2 | 16.1 | 0.00 | 0.00 | 0.00 | 65 | 1012.1 |
| 20260504033042 | 17 | 200 | 3.2 | 16.1 | 0.00 | 0.00 | 0.00 | 65 | 1012.2 |
| 20260504032542 | 17 | 190 | 4.8 | 16.1 | 0.00 | 0.00 | 0.00 | 65 | 1012.2 |
| 20260504032042 | 17 | 196 | 4.8 | 17.7 | 0.00 | 0.00 | 0.00 | 65 | 1012.3 |
| 20260504031550 | 17 | 209 | 3.2 | 16.1 | 0.00 | 0.00 | 0.00 | 65 | 1012.4 |
| 20260504031044 | 17 | 220 | 6.4 | 16.1 | 0.00 | 0.00 | 0.00 | 65 | 1012.2 |
| 20260504030502 | 17 | 174 | 3.2 | 12.9 | 0.00 | 0.00 | 0.00 | 65 | 1012.4 |
| 20260504030002 | 17 | 205 | 3.2 | 12.9 | 0.00 | 0.00 | 0.00 | 65 | 1012.4 |
| 20260504025502 | 17 | 198 | 3.2 | 12.9 | 0.00 | 0.00 | 0.00 | 65 | 1012.3 |
| 20260504025004 | 17 | 176 | 3.2 | 11.3 | 0.00 | 0.00 | 0.00 | 65 | 1012.3 |
| 20260504024502 | 17 | 171 | 1.6 | 8.0 | 0.00 | 0.00 | 0.00 | 65 | 1012.4 |
| 20260504024001 | 17 | 191 | 3.2 | 11.3 | 0.00 | 0.00 | 0.00 | 66 | 1012.3 |
| 20260504023502 | 17 | 170 | 1.6 | 11.3 | 0.00 | 0.00 | 0.00 | 66 | 1012.3 |
| 20260504023002 | 17 | 186 | 0.0 | 8.0 | 0.00 | 0.00 | 0.00 | 67 | 1012.2 |
| 20260504022503 | 17 | 159 | 1.6 | 6.4 | 0.00 | 0.00 | 0.00 | 66 | 1012.1 |
| 20260504022000 | 17 | 190 | 1.6 | 9.7 | 0.00 | 0.00 | 0.00 | 66 | 1012.1 |
| 20260504021552 | 17 | 189 | 3.2 | 9.7 | 0.00 | 0.00 | 0.00 | 66 | 1011.4 |
| 20260504021051 | 17 | 197 | 3.2 | 8.0 | 0.00 | 0.00 | 0.00 | 66 | 1011.5 |
| 20260504020650 | 17 | 215 | 1.6 | 6.4 | 0.00 | 0.00 | 0.00 | 65 | 1011.4 |
| 20260504020045 | 17 | 192 | 1.6 | 9.7 | 0.00 | 0.00 | 0.00 | 66 | 1011.6 |
| 20260504015545 | 17 | 197 | 1.6 | 9.7 | 0.00 | 0.00 | 0.00 | 65 | 1011.5 |
| 20260504015045 | 17 | 194 | 1.6 | 4.8 | 0.00 | 0.00 | 0.00 | 65 | 1011.4 |
| 20260504014544 | 17 | 186 | 1.6 | 4.8 | 0.00 | 0.00 | 0.00 | 63 | 1011.3 |
| 20260504014044 | 18 | 194 | 1.6 | 12.9 | 0.00 | 0.00 | 0.00 | 62 | 1011.4 |
| 20260504013547 | 18 | 171 | 1.6 | 12.9 | 0.00 | 0.00 | 0.00 | 63 | 1011.3 |
| 20260504013050 | 17 | 171 | 1.6 | 6.4 | 0.00 | 0.00 | 0.00 | 63 | 1011.3 |
| 20260504012544 | 17 | 200 | 1.6 | 6.4 | 0.00 | 0.00 | 0.00 | 64 | 1011.3 |
| 20260504012044 | 17 | 186 | 1.6 | 6.4 | 0.00 | 0.00 | 0.00 | 63 | 1011.2 |
| 20260504011544 | 18 | 198 | 1.6 | 4.8 | 0.00 | 0.00 | 0.00 | 62 | 1011.2 |
| 20260504011046 | 18 | 190 | 0.0 | 8.0 | 0.00 | 0.00 | 0.00 | 62 | 1011.2 |
| 20260504010643 | 18 | 178 | 1.6 | 8.0 | 0.00 | 0.00 | 0.00 | 60 | 1011.0 |
| 20260504010053 | 20 | 194 | 3.2 | 9.7 | 0.00 | 0.00 | 0.00 | 58 | 1011.1 |
| 20260504005542 | 20 | 187 | 3.2 | 9.7 | 0.00 | 0.00 | 0.00 | 55 | 1011.0 |
| 20260504005043 | 20 | 165 | 3.2 | 9.7 | 0.00 | 0.00 | 0.00 | 55 | 1011.0 |
| 20260504004546 | 20 | 182 | 4.8 | 9.7 | 0.00 | 0.00 | 0.00 | 53 | 1010.9 |
| 20260504004042 | 21 | 188 | 3.2 | 11.3 | 0.00 | 0.00 | 0.00 | 53 | 1011.0 |
| 20260504003542 | 21 | 215 | 4.8 | 16.1 | 0.00 | 0.00 | 0.00 | 53 | 1011.0 |
| 20260504003043 | 21 | 197 | 1.6 | 17.7 | 0.00 | 0.00 | 0.00 | 52 | 1011.0 |
| 20260504002541 | 21 | 184 | 4.8 | 17.7 | 0.00 | 0.00 | 0.00 | 51 | 1010.9 |
| 20260504002041 | 22 | 211 | 6.4 | 16.1 | 0.00 | 0.00 | 0.00 | 50 | 1011.0 |
| 20260504001541 | 22 | 213 | 4.8 | 32.2 | 0.00 | 0.00 | 0.00 | 50 | 1011.0 |
| 20260504001043 | 22 | 200 | 6.4 | 32.2 | 0.00 | 0.00 | 0.00 | 49 | 1011.0 |
| 20260504000640 | 22 | 219 | 6.4 | 16.1 | 0.00 | 0.00 | 0.00 | 49 | 1011.0 |
| 20260504000038 | 22 | 169 | 6.4 | 17.7 | 0.00 | 0.00 | 0.00 | 49 | 1011.0 |
| 20260503235538 | 22 | 171 | 6.4 | 22.5 | 0.00 | 0.00 | 0.00 | 49 | 1011.0 |
| 20260503235038 | 22 | 155 | 4.8 | 22.5 | 0.00 | 0.00 | 0.00 | 48 | 1011.0 |
| 20260503234541 | 22 | 188 | 4.8 | 16.1 | 0.00 | 0.00 | 0.00 | 49 | 1011.0 |
| 20260503234041 | 22 | 200 | 4.8 | 16.1 | 0.00 | 0.00 | 0.00 | 49 | 1011.1 |
| 20260503233537 | 22 | 234 | 4.8 | 17.7 | 0.00 | 0.00 | 0.00 | 48 | 1011.1 |
| 20260503233038 | 22 | 201 | 4.8 | 16.1 | 0.00 | 0.00 | 0.00 | 48 | 1011.1 |
| 20260503232537 | 22 | 187 | 4.8 | 27.4 | 0.00 | 0.00 | 0.00 | 48 | 1011.2 |
| 20260503232036 | 22 | 238 | 8.0 | 29.0 | 0.00 | 0.00 | 0.00 | 48 | 1011.3 |
| 20260503231536 | 23 | 213 | 6.4 | 19.3 | 0.00 | 0.00 | 0.00 | 47 | 1011.2 |
| 20260503231038 | 22 | 197 | 6.4 | 27.4 | 0.00 | 0.00 | 0.00 | 48 | 1011.3 |
| 20260503230637 | 22 | 188 | 12.9 | 27.4 | 0.00 | 0.00 | 0.00 | 47 | 1011.3 |
| 20260503230110 | 22 | 179 | 3.2 | 29.0 | 0.00 | 0.00 | 0.00 | 47 | 1011.4 |
| 20260503225555 | 23 | 184 | 12.9 | 30.6 | 0.00 | 0.00 | 0.00 | 47 | 1011.5 |
| 20260503225054 | 23 | 231 | 9.7 | 30.6 | 0.00 | 0.00 | 0.00 | 47 | 1011.5 |
| 20260503224554 | 23 | 168 | 9.7 | 27.4 | 0.00 | 0.00 | 0.00 | 47 | 1011.5 |
| 20260503224054 | 23 | 221 | 6.4 | 20.9 | 0.00 | 0.00 | 0.00 | 47 | 1011.7 |
| 20260503223554 | 23 | 196 | 4.8 | 17.7 | 0.00 | 0.00 | 0.00 | 48 | 1011.5 |
| 20260503223109 | 23 | 184 | 4.8 | 19.3 | 0.00 | 0.00 | 0.00 | 47 | 1011.7 |
| 20260503222552 | 23 | 178 | 3.2 | 27.4 | 0.00 | 0.00 | 0.00 | 48 | 1011.6 |
| 20260503222052 | 23 | 228 | 8.0 | 29.0 | 0.00 | 0.00 | 0.00 | 46 | 1011.7 |
| 20260503221554 | 23 | 212 | 9.7 | 29.0 | 0.00 | 0.00 | 0.00 | 46 | 1011.7 |
| 20260503221052 | 23 | 184 | 9.7 | 24.1 | 0.00 | 0.00 | 0.00 | 46 | 1011.9 |
| 20260503220651 | 23 | 225 | 8.0 | 30.6 | 0.00 | 0.00 | 0.00 | 45 | 1011.9 |
| 20260503220053 | 23 | 255 | 8.0 | 35.4 | 0.00 | 0.00 | 0.00 | 46 | 1011.9 |
| 20260503215551 | 23 | 153 | 14.5 | 35.4 | 0.00 | 0.00 | 0.00 | 44 | 1012.0 |
| 20260503215051 | 23 | 213 | 12.9 | 27.4 | 0.00 | 0.00 | 0.00 | 44 | 1012.0 |
| 20260503214556 | 23 | 214 | 4.8 | 24.1 | 0.00 | 0.00 | 0.00 | 46 | 1012.1 |
| 20260503214050 | 23 | 190 | 9.7 | 19.3 | 0.00 | 0.00 | 0.00 | 44 | 1012.1 |
| 20260503213550 | 23 | 157 | 6.4 | 17.7 | 0.00 | 0.00 | 0.00 | 45 | 1012.1 |
| 20260503213051 | 23 | 164 | 8.0 | 17.7 | 0.00 | 0.00 | 0.00 | 50 | 1012.2 |